Location: Llanfihangel-Ystrad
(52.1833°N, 4.1667°W)
Time: 06:24:23
(UTC+00:00)

ATLAS 2AS CENTAUR R/B - Pass Details

Date: 17 February 2020
Orbit: 929 x 1283 km, 63.7° (Epoch: 05 April)

Event Time Altitude Azimuth Distance (km) Brightness Sun altitude
Exits shadow 05:57:53 - 312° (NW) 3,391 4.9 -14.6°
Reaches altitude 10° 05:58:19 10° 313° (NW) 3,251 4.8 -14.5°
Maximum altitude 06:05:57 51° 28° (NNE) 1,493 3.6 -13.4°
Drops below altitude 10° 06:13:03 10° 103° (ESE) 3,030 6.5 -12.3°
Sets 06:15:45 0° 109° (ESE) 3,936 7.4 -11.9°
